This is the latest recevied weather packets stored in our database for station/object N0TKN. If no packets are shown the sender has not sent any weather packets the latest 10 day(s).
| Time | Temp. | Humidity | Pressure | Rain* | Wind** | Luminosity | Snow |
|---|---|---|---|---|---|---|---|
| 1778042718 | 7.22° C | 99% | 1012.6 hPa | 0 mm | - | 0 W/m² | - |
| 1778042115 | 7.22° C | 99% | 1012.6 hPa | 0 mm | - | 0 W/m² | - |
| 1778041516 | 7.22° C | 99% | 1012.9 hPa | 0 mm | - | 0 W/m² | - |
| 1778040916 | 6.67° C | 99% | 1012.8 hPa | 0 mm | - | 0 W/m² | - |
| 1778040315 | 7.22° C | 99% | 1012.7 hPa | 0 mm | - | 0 W/m² | - |
| 1778039716 | 7.22° C | 99% | 1012.6 hPa | 0.25 mm | - | 0 W/m² | - |
| 1778039116 | 7.22° C | 99% | 1012.6 hPa | 0.51 mm | - | 0 W/m² | - |
| 1778038516 | 7.22° C | 99% | 1013.1 hPa | 0.76 mm | - | 0 W/m² | - |
| 1778037917 | 7.22° C | 99% | 1012.7 hPa | 1.02 mm | - | 0 W/m² | - |
| 1778037316 | 6.67° C | 99% | 1012.6 hPa | 1.27 mm | - | 0 W/m² | - |
| 1778036717 | 7.22° C | 99% | 1012.7 hPa | 1.27 mm | - | 0 W/m² | - |
| 1778036117 | 7.22° C | 99% | 1012.7 hPa | 1.27 mm | - | 0 W/m² | - |
| 1778035518 | 6.67° C | 99% | 1012.8 hPa | 1.02 mm | - | 0 W/m² | - |
| 1778034922 | 6.67° C | 99% | 1012.6 hPa | 1.02 mm | - | 0 W/m² | - |
| 1778034318 | 6.67° C | 99% | 1012.5 hPa | 1.02 mm | - | 0 W/m² | - |
| 1778033718 | 6.67° C | 99% | 1012.3 hPa | 2.03 mm | - | 0 W/m² | - |
| 1778033117 | 6.67° C | 99% | 1011.9 hPa | 2.54 mm | - | 0 W/m² | - |
| 1778032518 | 6.67° C | 99% | 1011.6 hPa | 3.05 mm | - | 0 W/m² | - |
| 1778031918 | 6.67° C | 99% | 1011.5 hPa | 3.05 mm | - | 0 W/m² | - |
| 1778031318 | 6.67° C | 99% | 1011.6 hPa | 3.3 mm | - | 0 W/m² | - |
| 1778030718 | 6.67° C | 99% | 1011.6 hPa | 2.79 mm | - | 0 W/m² | - |
| 1778030118 | 6.67° C | 100% | 1011.9 hPa | 2.03 mm | - | 1 W/m² | - |
| 1778029515 | 6.67° C | 100% | 1011.9 hPa | 1.78 mm | - | 1 W/m² | - |
| 1778028916 | 6.67° C | 100% | 1011.7 hPa | 1.52 mm | - | 1 W/m² | - |
| 1778028316 | 6.67° C | 99% | 1011.5 hPa | 1.52 mm | - | 2 W/m² | - |
* Rain latest hour (hover to see other rain measurements)
** Current wind speed in m/s (hover to see current wind gust speed)